Regional Weather Roundup
Issued by NWS

Home | Current Version | Previous Version | Graphics & Text | Print | Product List | Glossary On
Versions: 1 2 3 4 5 6 7 8 9 10 11 12 13 14 15 16 17 18 19 20 21 22 23 24 25 26 27 28 29 30 31 32 33 34 35 36 37 38 39 40 41 42 43 44 45 46 47 48 49 50
000
ASUS44 KMEG 290910
RWRTN
TENNESSEE HOURLY STATE WEATHER ROUNDUP
NATIONAL WEATHER SERVICE MEMPHIS TN
400 AM CDT TUE JUL 29 2014

TNZ002-004-019-021-049-052-054-088>092-291000-
WEST TENNESSEE

CITY           SKY/WX    TMP DP  RH WIND       PRES   REMARKS
MEMPHIS INTL   MOCLDY    73  60  63 NE9G17    30.07R
NWS MEMPHIS      N/A     70 N/A N/A MISG        N/A
JACKSON        MOCLDY    64  60  87 N5        30.07R
DYERSBURG      PTCLDY    64  52  63 N7        30.09S
UNION CITY     CLEAR     61  57  88 N3        30.08R
PARIS          CLEAR     56  54  93 N3        30.08S
LEXINGTON      CLEAR     61  59  94 N3        30.05S
SAVANNAH       CLEAR     62  62 100 CALM      30.05S
$$

TNZ008-025-027-028-033-062-065-066-291000-
NORTH MIDDLE TENNESSEE

CITY           SKY/WX    TMP DP  RH WIND       PRES   REMARKS
NASHVILLE      PTCLDY    64  56  75 N7        30.04S
DICKSON        CLEAR     59  54  82 N5        30.06S
PORTLAND       CLEAR     57  54  88 NW5       30.05R
CLARKSVILLE    CLEAR     58  53  84 N5        30.07R
LEBANON        CLEAR     61  56  83 N6        30.03R
SMYRNA         CLEAR     65  57  75 N9        30.05R
MURFREESBORO   CLEAR     64  57  78 N3        30.03S
COOKEVILLE     CLEAR     57  57 100 CALM      30.02S
LIVINGSTON     CLOUDY    60  56  87 N7        30.03S
CROSSVILLE     CLEAR     60  57  89 NW6       30.04S
$$

TNZ061-075-076-078-094-096-097-291000-
SOUTH MIDDLE TENNESSEE

CITY           SKY/WX    TMP DP  RH WIND       PRES   REMARKS
LEWISBURG      CLEAR     64  57  78 NW3       30.04R
FAYETTEVILLE   CLEAR     63  57  82 N8        30.03S
TULLAHOMA      CLEAR     61  55  82 NW6       30.05R
WINCHESTER     MOCLDY    63  61  94 CALM      30.03S
MCMINNVILLE    CLEAR     59  59 100 CALM      30.03S
COLUMBIA       CLEAR     63  61  94 CALM      30.04S
SHELBYVILLE    CLEAR     63  59  88 N3        30.05R
$$

TNZ017-018-042-046-047-291000-
NORTHEAST TENNESSEE

CITY           SKY/WX    TMP DP  RH WIND       PRES   REMARKS
TRI CITIES     CLEAR     57  54  89 CALM      29.98F
ELIZABETHTON   MOSUNNY   55  55 100 CALM        N/A
$$

TNZ012-013-036-069-073-074-291000-
CENTRAL EAST TENNESSEE

CITY           SKY/WX    TMP DP  RH WIND       PRES   REMARKS
KNOXVILLE      MOCLDY    66  59  78 NW3       29.99R
OAK RIDGE      PTCLDY    63  60  90 CALM      30.01R
GATLINBURG     PTSUNNY   61  59  94 CALM      29.99S
MORRISTOWN     SUNNY     61  61 100 W5        30.01R
$$

TNZ083-085-099-291000-
SOUTHEAST TENNESSEE

CITY           SKY/WX    TMP DP  RH WIND       PRES   REMARKS
CHATTANOOGA    CLEAR     66  59  78 NW7       30.00R
$$

SKY/WX REPORTED AS FAIR MEANS FEW OR NO CLOUDS BELOW
12 THOUSAND FEET.




USA.gov is the U.S. government's official web portal to all federal, state and local government web resources and services.